Tracking 26217 objects as of 28-Sep-2022
HD Live streaming from Space Station
objects crossing your sky now

NAVSTAR 78 (USA 293)

Track NAVSTAR 78 (USA 293) now!
NAVSTAR 78 (USA 293) is classified as:


NORAD ID: 44506
Int'l Code: 2019-056A
Perigee: 20,113.9 km
Apogee: 20,265.7 km
Inclination: 55.7 °
Period: 718.0 minutes
Semi major axis: 26560 km
RCS: Unknown
Launch date: August 22, 2019
Source: United States (US)
Launch site: AIR FORCE EASTERN TEST RANGE (AFETR)
PRN: 18
aabbcc
Your satellite tracking list
Your tracking list is empty




NASA's NSSDC Master Catalog

Two Line Element Set (TLE):
1 44506U 19056A   22270.51199024 -.00000068  00000-0  00000+0 0  9998
2 44506  55.7233  24.9960 0028575 181.1405 173.1939  2.00558353 22810
Source of the keplerian elements: AFSPC